Lancaster, PA

11:57 AM EST on January 18, 2017 (GMT -0500)
Willow Acres | | Change Station
Active Advisory: Small Craft Advisory

Elev 120 ft 40.03 °N, 76.20 °W | Updated 5 seconds ago

Overcast
Overcast
46.9 °F
Feels Like 47 °F
N
2.0
Wind Variable Wind from West

Today
High -- | Low -- °F
--% Chance of Precip.
Yesterday
High -- | Low -- °F
Precip. -- in
Pressure 29.92 in
Visibility 5.0 miles
Clouds Overcast 7500 ft
Windchill 47 °F
Dew Point 42 °F
Humidity 86%
Rainfall 0.02 in
Snow Depth Not available.
7:23 AM 5:07 PM
Waning Gibbous, 62% visible
METAR KLNS 181653Z 29007KT 5SM BR OVC075 08/07 A2992 RMK AO2 RAE13 SLP132 P0000 T00780072
Pressure 29.92 in
Visibility 5.0 miles
Clouds Overcast 7500 ft
Windchill 47 °F
Dew Point 42 °F
Humidity 86%
Rainfall 0.02 in
Snow Depth Not available.
7:23 AM 5:07 PM
Waning Gibbous, 62% visible
METAR KLNS 181653Z 29007KT 5SM BR OVC075 08/07 A2992 RMK AO2 RAE13 SLP132 P0000 T00780072

Get Your Daily Forecast Email!

Thanks for signing up!

Be on the lookout for a verification email in your inbox.

You'll start receiving the daily forecast at 8 AM.

×

10-Day Weather Forecast

Almanac

Astronomy

Jan. 18, 2017 Rise Set
Actual Time
Civil Twilight
Nautical Twilight
Astronomical Twilight
Moon
Length of Visible Light
Length of Day
Tomorrow will be .
, % of the Moon is Illuminated

Today's Extremes

State Highs State Lows

Community

WunderPhotos

Upload Photos

1,962,540 photos uploaded!

WunderBlog® & News

Nearby

Air Quality

  Air Quality AQ Index Pollutant
Not available.

Snow Depth

Station Depth Elevation

Earthquake Activity

City Distance Mag. Time & Date
Minimum magnitude displayed is 2.5.

Coastal Water Temperatures

Place Temperature

Stations

Nearby Weather Stations

Station Location Temp. Windchill Dew Point Humidity Wind Precip. Elev Updated Type
                   

Watches & Warnings

Small Craft Advisory
Issued: 9:27 AM EST Jan. 18, 2017 – National Weather Service

... Small Craft Advisory now in effect until 8 PM EST this
evening...

* winds... 18 to 33 knots within the Small Craft Advisory.

Precautionary/preparedness actions...

A Small Craft Advisory means winds of 18 to 33 knots are imminent
or occurring. Boaters operating smaller vessels should avoid
navigating in these conditions.